Norasia Valparaiso — A8CJ9 — position and weather

sailwx.info

Track history (hours):
 
Tides and Currents Weather Stations Pressure Air Temp Water Temp Dewpoint Dewpoint Depression Visibility Wind Speed Wind Dir Waves Ship Positions

Norasia Valparaiso

Last reported at 2014-Sep-22 20:28 UTC. Time now 2014-Oct-02 12:37 UTC.
Position N 40°29' E 014°09'.
Warning: this ship's position is 9 days out of date.

Length 286.3 m; beam 32.2 m; draft 13.2 m.

Type: Cargo ship. MMSI: 636090659.

Date/timePositionNaut miles runAvg speedWind from/ knotsBaromVisibWave heightAir tempDewpointWater temp
2014-Sep-22 20:28N 40°29' E 014°09'22 2.2
2014-Sep-22 10:31N 40°50' E 014°17'0 0.0
2014-Sep-22 09:31N 40°50' E 014°17'0 0.0
2014-Sep-22 07:31N 40°50' E 014°17'2 1.7
2014-Sep-22 06:33N 40°49' E 014°17'1111.2
2014-Sep-22 05:33N 40°41' E 014°06'17020.4
2014-Sep-21 21:15N 41°49' E 010°40'2121.2
2014-Sep-21 20:16N 42°00' E 010°17'1521.1
2014-Sep-21 19:33N 42°12' E 010°04'2121.2
2014-Sep-21 18:33N 42°31' E 009°49'2621.1
2014-Sep-21 17:19N 42°56' E 009°39'1620.1
2014-Sep-21 16:32N 43°11' E 009°41'2020.2
2014-Sep-21 15:33N 43°31' E 009°45'2020.4
2014-Sep-21 14:33N 43°51' E 009°50'1413.8
2014-Sep-21 13:33N 44°05' E 009°51'2 1.8
2014-Sep-21 12:32N 44°06' E 009°51'0 0.0
2014-Sep-21 11:32N 44°06' E 009°51'0 0.0
2014-Sep-21 10:32N 44°06' E 009°51'0 0.0
2014-Sep-21 09:32N 44°06' E 009°51'0 0.0
2014-Sep-21 08:32N 44°06' E 009°51'0 0.0
2014-Sep-21 07:32N 44°06' E 009°51'0 0.0
2014-Sep-21 06:32N 44°06' E 009°51'0 0.0
2014-Sep-21 05:32N 44°06' E 009°51'0 0.0
2014-Sep-21 04:32N 44°06' E 009°51'0 0.0
2014-Sep-21 03:32N 44°06' E 009°51'0 0.0
2014-Sep-21 02:32N 44°06' E 009°51'0 0.0
2014-Sep-21 01:33N 44°06' E 009°51'5 4.9
2014-Sep-21 00:33N 44°02' E 009°54'5 4.6
2014-Sep-20 23:31N 43°58' E 009°53'0 0.1
2014-Sep-20 22:33N 43°57' E 009°53'0 0.2
2014-Sep-20 21:34N 43°57' E 009°53'2 1.7
2014-Sep-20 20:33N 43°56' E 009°54'10 9.9
2014-Sep-20 19:33N 43°50' E 009°43'8 8.1
2014-Sep-20 18:34N 43°43' E 009°36'9 9.0
2014-Sep-20 17:34N 43°43' E 009°23'1212.0
2014-Sep-20 16:34N 43°38' E 009°08'1211.9
2014-Sep-20 15:34N 43°33' E 008°53'1211.7
2014-Sep-20 14:33N 43°29' E 008°39'1211.5
2014-Sep-20 13:33N 43°24' E 008°24'1111.4
2014-Sep-20 12:34N 43°19' E 008°10'1211.5
2014-Sep-20 11:32N 43°15' E 007°55'2611.5
2014-Sep-20 09:16N 43°04' E 007°22'811.4
2014-Sep-20 08:34N 43°00' E 007°13'1111.1
2014-Sep-20 07:33N 42°56' E 006°59'1111.0
2014-Sep-20 06:32N 42°51' E 006°45'1210.8
2014-Sep-20 05:28N 42°46' E 006°31'910.3
2014-Sep-20 04:33N 42°47' E 006°18'1010.0
2014-Sep-20 03:34N 42°48' E 006°04'10 9.5
2014-Sep-20 02:33N 42°49' E 005°51'10 9.6
2014-Sep-20 01:31N 42°50' E 005°38'9 9.0
2014-Sep-20 00:32N 42°53' E 005°27'13 9.2
2014-Sep-19 23:07N 43°02' E 005°14'5 9.2
2014-Sep-19 22:34N 43°06' E 005°09'10 9.6
2014-Sep-19 21:34N 43°13' E 005°00'10 9.8
2014-Sep-19 20:33N 43°23' E 004°58'6 5.9
2014-Sep-19 19:33N 43°25' E 004°50'0 0.0
2014-Sep-19 18:33N 43°25' E 004°50'0 0.0
2014-Sep-19 17:33N 43°25' E 004°50'0 0.0
2014-Sep-19 16:33N 43°25' E 004°50'0 0.0
2014-Sep-19 15:33N 43°25' E 004°50'0 0.0
2014-Sep-19 14:30N 43°25' E 004°50'0 0.0
2014-Sep-19 13:33N 43°25' E 004°50'0 0.0
2014-Sep-19 12:33N 43°25' E 004°50'0 0.0
2014-Sep-19 11:21N 43°25' E 004°50'0 0.0
2014-Sep-19 10:33N 43°25' E 004°50'0 0.0
2014-Sep-19 09:33N 43°25' E 004°50'0 0.0
2014-Sep-19 08:33N 43°25' E 004°50'0 0.0
2014-Sep-19 07:33N 43°25' E 004°50'0 0.0
2014-Sep-19 06:33N 43°25' E 004°50'0 0.0
2014-Sep-19 05:33N 43°25' E 004°50'0 0.0
2014-Sep-19 04:30N 43°25' E 004°50'0 0.0
2014-Sep-19 03:33N 43°25' E 004°50'0 0.0
2014-Sep-19 02:33N 43°25' E 004°50'6 6.0
2014-Sep-19 01:34N 43°23' E 004°58'7 6.6
2014-Sep-19 00:33N 43°16' E 005°00'8 8.1
2014-Sep-18 23:33N 43°08' E 005°01'1010.1
2014-Sep-18 22:33N 43°01' E 004°51'1010.4
2014-Sep-18 21:33N 42°53' E 004°42'1010.2
2014-Sep-18 20:32N 42°46' E 004°32'1010.1
2014-Sep-18 19:33N 42°38' E 004°23'1110.6
2014-Sep-18 18:31N 42°30' E 004°13'1111.0
2014-Sep-18 17:33N 42°22' E 004°03'1110.6
2014-Sep-18 16:33N 42°14' E 003°54'1210.7
2014-Sep-18 15:26N 42°06' E 003°43'910.2
2014-Sep-18 14:32N 41°59' E 003°34'1311.5
2014-Sep-18 13:26N 41°49' E 003°23'1311.8
2014-Sep-18 12:20N 41°41' E 003°10'1011.7
2014-Sep-18 11:26N 41°34' E 002°60'1312.5
2014-Sep-18 10:26N 41°25' E 002°47'1613.0
2014-Sep-18 09:12N 41°14' E 002°32'1115.2
2014-Sep-18 08:30N 41°08' E 002°20'14913.6
2014-Sep-17 21:33N 39°31' W 000°08'1010.3
2014-Sep-17 20:33N 39°26' W 000°19'0 0.2
2014-Sep-17 19:32N 39°26' W 000°19'0 0.0
2014-Sep-17 18:29N 39°26' W 000°19'0 0.0
2014-Sep-17 17:14N 39°26' W 000°19'0 0.0
2014-Sep-17 16:32N 39°26' W 000°19'0 0.0
2014-Sep-17 15:32N 39°26' W 000°19'0 0.0
2014-Sep-17 14:32N 39°26' W 000°19'0 0.0
2014-Sep-17 13:32N 39°26' W 000°19'0 0.0
2014-Sep-17 12:32N 39°26' W 000°19'0 0.0
2014-Sep-17 08:30N 39°26' W 000°19'0 0.0
2014-Sep-17 07:24N 39°26' W 000°19'0 0.0
2014-Sep-17 06:31N 39°26' W 000°19'0 0.0
2014-Sep-17 05:31N 39°26' W 000°19'0 0.1
2014-Sep-17 04:28N 39°26' W 000°19'5 5.5
2014-Sep-17 03:33N 39°24' W 000°13'9914.0
2014-Sep-16 20:27N 39°05' E 001°53'1415.2
2014-Sep-16 19:32N 38°58' E 002°08'1615.0
2014-Sep-16 18:27N 38°49' E 002°25'8115.4
2014-Sep-16 13:14N 38°05' E 003°51'23115.7
2014-Sep-15 22:27N 37°43' E 008°43'1415.8
2014-Sep-15 21:33N 37°42' E 009°01'1615.9
2014-Sep-15 20:33N 37°42' E 009°21'1616.1
2014-Sep-15 19:33N 37°41' E 009°42'1615.7
2014-Sep-15 18:33N 37°40' E 010°01'1515.0
2014-Sep-15 17:33N 37°38' E 010°20'1815.0
2014-Sep-15 16:22N 37°34' E 010°42'1215.3
2014-Sep-15 15:33N 37°31' E 010°57'8215.3
2014-Sep-15 10:14N 36°59' E 012°32'1115.9
2014-Sep-15 09:33N 36°56' E 012°44'1615.7
2014-Sep-15 08:33N 36°50' E 013°03'1616.1
2014-Sep-15 07:33N 36°45' E 013°22'3718.3
2014-Sep-15 05:33N 36°33' E 014°05'1515.5
2014-Sep-15 04:33N 36°28' E 014°23'1515.3
2014-Sep-15 03:33N 36°23' E 014°41'1615.0
2014-Sep-15 02:31N 36°17' E 014°59'42514.2
2014-Sep-13 20:33N 37°34' E 023°42'1716.6
2014-Sep-13 19:33N 37°50' E 023°36'7 0.6
2014-Sep-13 07:08N 37°57' E 023°35'0 0.0
2014-Sep-13 06:32N 37°57' E 023°35'0 0.0
2014-Sep-13 05:32N 37°57' E 023°35'1 1.4
2014-Sep-13 04:34N 37°56' E 023°36'2 1.7
2014-Sep-13 03:34N 37°54' E 023°37'7 7.4
2014-Sep-13 02:34N 37°48' E 023°41'10 9.6
2014-Sep-13 01:30N 37°39' E 023°46'4815.5
2014-Sep-12 22:24N 36°52' E 024°03'1617.2
2014-Sep-12 21:27N 36°38' E 024°12'1516.8
2014-Sep-12 20:33N 36°26' E 024°23'  
Track history (hours):
 
Tides and Currents Weather Stations Pressure Air Temp Water Temp Dewpoint Dewpoint Depression Visibility Wind Speed Wind Dir Waves Ship Positions

Norasia Valparaiso

Last reported at 2014-Sep-22 20:28 UTC. Time now 2014-Oct-02 12:37 UTC.
Position N 40°29' E 014°09'.
Warning: this ship's position is 9 days out of date.

Length 286.3 m; beam 32.2 m; draft 13.2 m.

Type: Cargo ship. MMSI: 636090659.

Date/timePositionNaut miles runAvg speedWind from/ knotsBaromVisibWave heightAir tempDewpointWater temp
2014-Sep-22 20:28N 40°29' E 014°09'22 2.2
2014-Sep-22 10:31N 40°50' E 014°17'0 0.0
2014-Sep-22 09:31N 40°50' E 014°17'0 0.0
2014-Sep-22 07:31N 40°50' E 014°17'2 1.7
2014-Sep-22 06:33N 40°49' E 014°17'1111.2
2014-Sep-22 05:33N 40°41' E 014°06'17020.4
2014-Sep-21 21:15N 41°49' E 010°40'2121.2
2014-Sep-21 20:16N 42°00' E 010°17'1521.1
2014-Sep-21 19:33N 42°12' E 010°04'2121.2
2014-Sep-21 18:33N 42°31' E 009°49'2621.1
2014-Sep-21 17:19N 42°56' E 009°39'1620.1
2014-Sep-21 16:32N 43°11' E 009°41'2020.2
2014-Sep-21 15:33N 43°31' E 009°45'2020.4
2014-Sep-21 14:33N 43°51' E 009°50'1413.8
2014-Sep-21 13:33N 44°05' E 009°51'2 1.8
2014-Sep-21 12:32N 44°06' E 009°51'0 0.0
2014-Sep-21 11:32N 44°06' E 009°51'0 0.0
2014-Sep-21 10:32N 44°06' E 009°51'0 0.0
2014-Sep-21 09:32N 44°06' E 009°51'0 0.0
2014-Sep-21 08:32N 44°06' E 009°51'0 0.0
2014-Sep-21 07:32N 44°06' E 009°51'0 0.0
2014-Sep-21 06:32N 44°06' E 009°51'0 0.0
2014-Sep-21 05:32N 44°06' E 009°51'0 0.0
2014-Sep-21 04:32N 44°06' E 009°51'0 0.0
2014-Sep-21 03:32N 44°06' E 009°51'0 0.0
2014-Sep-21 02:32N 44°06' E 009°51'0 0.0
2014-Sep-21 01:33N 44°06' E 009°51'5 4.9
2014-Sep-21 00:33N 44°02' E 009°54'5 4.6
2014-Sep-20 23:31N 43°58' E 009°53'0 0.1
2014-Sep-20 22:33N 43°57' E 009°53'0 0.2
2014-Sep-20 21:34N 43°57' E 009°53'2 1.7
2014-Sep-20 20:33N 43°56' E 009°54'10 9.9
2014-Sep-20 19:33N 43°50' E 009°43'8 8.1
2014-Sep-20 18:34N 43°43' E 009°36'9 9.0
2014-Sep-20 17:34N 43°43' E 009°23'1212.0
2014-Sep-20 16:34N 43°38' E 009°08'1211.9
2014-Sep-20 15:34N 43°33' E 008°53'1211.7
2014-Sep-20 14:33N 43°29' E 008°39'1211.5
2014-Sep-20 13:33N 43°24' E 008°24'1111.4
2014-Sep-20 12:34N 43°19' E 008°10'1211.5
2014-Sep-20 11:32N 43°15' E 007°55'2611.5
2014-Sep-20 09:16N 43°04' E 007°22'811.4
2014-Sep-20 08:34N 43°00' E 007°13'1111.1
2014-Sep-20 07:33N 42°56' E 006°59'1111.0
2014-Sep-20 06:32N 42°51' E 006°45'1210.8
2014-Sep-20 05:28N 42°46' E 006°31'910.3
2014-Sep-20 04:33N 42°47' E 006°18'1010.0
2014-Sep-20 03:34N 42°48' E 006°04'10 9.5
2014-Sep-20 02:33N 42°49' E 005°51'10 9.6
2014-Sep-20 01:31N 42°50' E 005°38'9 9.0
2014-Sep-20 00:32N 42°53' E 005°27'13 9.2
2014-Sep-19 23:07N 43°02' E 005°14'5 9.2
2014-Sep-19 22:34N 43°06' E 005°09'10 9.6
2014-Sep-19 21:34N 43°13' E 005°00'10 9.8
2014-Sep-19 20:33N 43°23' E 004°58'6 5.9
2014-Sep-19 19:33N 43°25' E 004°50'0 0.0
2014-Sep-19 18:33N 43°25' E 004°50'0 0.0
2014-Sep-19 17:33N 43°25' E 004°50'0 0.0
2014-Sep-19 16:33N 43°25' E 004°50'0 0.0
2014-Sep-19 15:33N 43°25' E 004°50'0 0.0
2014-Sep-19 14:30N 43°25' E 004°50'0 0.0
2014-Sep-19 13:33N 43°25' E 004°50'0 0.0
2014-Sep-19 12:33N 43°25' E 004°50'0 0.0
2014-Sep-19 11:21N 43°25' E 004°50'0 0.0
2014-Sep-19 10:33N 43°25' E 004°50'0 0.0
2014-Sep-19 09:33N 43°25' E 004°50'0 0.0
2014-Sep-19 08:33N 43°25' E 004°50'0 0.0
2014-Sep-19 07:33N 43°25' E 004°50'0 0.0
2014-Sep-19 06:33N 43°25' E 004°50'0 0.0
2014-Sep-19 05:33N 43°25' E 004°50'0 0.0
2014-Sep-19 04:30N 43°25' E 004°50'0 0.0
2014-Sep-19 03:33N 43°25' E 004°50'0 0.0
2014-Sep-19 02:33N 43°25' E 004°50'6 6.0
2014-Sep-19 01:34N 43°23' E 004°58'7 6.6
2014-Sep-19 00:33N 43°16' E 005°00'8 8.1
2014-Sep-18 23:33N 43°08' E 005°01'1010.1
2014-Sep-18 22:33N 43°01' E 004°51'1010.4
2014-Sep-18 21:33N 42°53' E 004°42'1010.2
2014-Sep-18 20:32N 42°46' E 004°32'1010.1
2014-Sep-18 19:33N 42°38' E 004°23'1110.6
2014-Sep-18 18:31N 42°30' E 004°13'1111.0
2014-Sep-18 17:33N 42°22' E 004°03'1110.6
2014-Sep-18 16:33N 42°14' E 003°54'1210.7
2014-Sep-18 15:26N 42°06' E 003°43'910.2
2014-Sep-18 14:32N 41°59' E 003°34'1311.5
2014-Sep-18 13:26N 41°49' E 003°23'1311.8
2014-Sep-18 12:20N 41°41' E 003°10'1011.7
2014-Sep-18 11:26N 41°34' E 002°60'1312.5
2014-Sep-18 10:26N 41°25' E 002°47'1613.0
2014-Sep-18 09:12N 41°14' E 002°32'1115.2
2014-Sep-18 08:30N 41°08' E 002°20'14913.6
2014-Sep-17 21:33N 39°31' W 000°08'1010.3
2014-Sep-17 20:33N 39°26' W 000°19'0 0.2
2014-Sep-17 19:32N 39°26' W 000°19'0 0.0
2014-Sep-17 18:29N 39°26' W 000°19'0 0.0
2014-Sep-17 17:14N 39°26' W 000°19'0 0.0
2014-Sep-17 16:32N 39°26' W 000°19'0 0.0
2014-Sep-17 15:32N 39°26' W 000°19'0 0.0
2014-Sep-17 14:32N 39°26' W 000°19'0 0.0
2014-Sep-17 13:32N 39°26' W 000°19'0 0.0
2014-Sep-17 12:32N 39°26' W 000°19'0 0.0
2014-Sep-17 08:30N 39°26' W 000°19'0 0.0
2014-Sep-17 07:24N 39°26' W 000°19'0 0.0
2014-Sep-17 06:31N 39°26' W 000°19'0 0.0
2014-Sep-17 05:31N 39°26' W 000°19'0 0.1
2014-Sep-17 04:28N 39°26' W 000°19'5 5.5
2014-Sep-17 03:33N 39°24' W 000°13'9914.0
2014-Sep-16 20:27N 39°05' E 001°53'1415.2
2014-Sep-16 19:32N 38°58' E 002°08'1615.0
2014-Sep-16 18:27N 38°49' E 002°25'8115.4
2014-Sep-16 13:14N 38°05' E 003°51'23115.7
2014-Sep-15 22:27N 37°43' E 008°43'1415.8
2014-Sep-15 21:33N 37°42' E 009°01'1615.9
2014-Sep-15 20:33N 37°42' E 009°21'1616.1
2014-Sep-15 19:33N 37°41' E 009°42'1615.7
2014-Sep-15 18:33N 37°40' E 010°01'1515.0
2014-Sep-15 17:33N 37°38' E 010°20'1815.0
2014-Sep-15 16:22N 37°34' E 010°42'1215.3
2014-Sep-15 15:33N 37°31' E 010°57'8215.3
2014-Sep-15 10:14N 36°59' E 012°32'1115.9
2014-Sep-15 09:33N 36°56' E 012°44'1615.7
2014-Sep-15 08:33N 36°50' E 013°03'1616.1
2014-Sep-15 07:33N 36°45' E 013°22'3718.3
2014-Sep-15 05:33N 36°33' E 014°05'1515.5
2014-Sep-15 04:33N 36°28' E 014°23'1515.3
2014-Sep-15 03:33N 36°23' E 014°41'1615.0
2014-Sep-15 02:31N 36°17' E 014°59'42514.2
2014-Sep-13 20:33N 37°34' E 023°42'1716.6
2014-Sep-13 19:33N 37°50' E 023°36'7 0.6
2014-Sep-13 07:08N 37°57' E 023°35'0 0.0
2014-Sep-13 06:32N 37°57' E 023°35'0 0.0
2014-Sep-13 05:32N 37°57' E 023°35'1 1.4
2014-Sep-13 04:34N 37°56' E 023°36'2 1.7
2014-Sep-13 03:34N 37°54' E 023°37'7 7.4
2014-Sep-13 02:34N 37°48' E 023°41'10 9.6
2014-Sep-13 01:30N 37°39' E 023°46'4815.5
2014-Sep-12 22:24N 36°52' E 024°03'1617.2
2014-Sep-12 21:27N 36°38' E 024°12'1516.8
2014-Sep-12 20:33N 36°26' E 024°23'  

Dump ship's entire track history